When you browse on this site, cookies collect data to enhance your experience and personalize the content and advertising you see.
Visit our Privacy Policy to learn more. By continuing to use the site, you agree to this use of cookies and data.
  • In Schweiz
  • Länderverzeichnis
  • Für 7 Tage
  • Wassertemperatur
  • Wetterkarte
  • Widgets
  • user-avatar
    Anmelden

    Stündliche Wetter Zug

    Heute, 24 Februar, Montag

    Zeit Temperatur Niederschläge Wind Luftdruck Luftfeuchtigkeit
    00:00 +10°C° 0 mm 3 m/S 717 mmHg 77%
    01:00 +10°C° 0 mm 3 m/S 717 mmHg 78%
    02:00 +9°C° 0 mm 3 m/S 717 mmHg 79%
    03:00 +9°C° 0 mm 2 m/S 717 mmHg 79%
    04:00 +9°C° 0 mm 2 m/S 717 mmHg 80%
    05:00 +9°C° 0 mm 2 m/S 717 mmHg 80%
    06:00 +10°C° 0 mm 1 m/S 716 mmHg 79%
    07:00 +10°C° 0 mm 1 m/S 716 mmHg 79%
    08:00 +10°C° 0 mm 1 m/S 716 mmHg 78%
    09:00 +11°C° 0 mm 1 m/S 716 mmHg 77%
    10:00 +12°C° 0 mm 1 m/S 716 mmHg 75%
    11:00 +13°C° 0 mm 1 m/S 715 mmHg 72%
    12:00 +14°C° 0 mm 1 m/S 715 mmHg 69%
    13:00 +15°C° 0 mm 2 m/S 715 mmHg 66%
    14:00 +15°C° 0 mm 2 m/S 714 mmHg 67%
    15:00 +15°C° 0 mm 2 m/S 713 mmHg 67%
    16:00 +14°C° 0 mm 2 m/S 712 mmHg 68%
    17:00 +13°C° 0 mm 2 m/S 712 mmHg 72%
    18:00 +12°C° 0 mm 2 m/S 711 mmHg 75%
    19:00 +9°C° 0 mm 2 m/S 711 mmHg 79%
    20:00 +9°C° 0 mm 2 m/S 711 mmHg 77%
    21:00 +9°C° 0 mm 2 m/S 710 mmHg 76%
    22:00 +8°C° 0 mm 2 m/S 710 mmHg 75%
    23:00 +8°C° 0 mm 2 m/S 710 mmHg 74%

    Morgen, 25 Februar, Dienstag

    Zeit Temperatur Niederschläge Wind Luftdruck Luftfeuchtigkeit
    00:00 +7°C° 0 mm 2 m/S 710 mmHg 73%
    01:00 +7°C° 0 mm 2 m/S 709 mmHg 72%
    02:00 +7°C° 0 mm 2 m/S 709 mmHg 73%
    03:00 +6°C° 0 mm 2 m/S 708 mmHg 73%
    04:00 +6°C° 0 mm 2 m/S 707 mmHg 73%
    05:00 +6°C° 0 mm 2 m/S 707 mmHg 73%
    06:00 +7°C° 0 mm 1 m/S 707 mmHg 73%
    07:00 +7°C° 0 mm 1 m/S 706 mmHg 73%
    08:00 +7°C° 0 mm 2 m/S 706 mmHg 69%
    09:00 +8°C° 0 mm 2 m/S 706 mmHg 66%
    10:00 +9°C° 0 mm 3 m/S 705 mmHg 62%
    11:00 +9°C° 0 mm 3 m/S 705 mmHg 63%
    12:00 +10°C° 0 mm 4 m/S 705 mmHg 63%
    13:00 +9°C° 0 mm 5 m/S 705 mmHg 63%
    14:00 +8°C° 0.4 mm 4 m/S 704 mmHg 71%
    15:00 +7°C° 0.4 mm 4 m/S 704 mmHg 78%
    16:00 +6°C° 0.4 mm 4 m/S 703 mmHg 85%
    17:00 +7°C° 0.5 mm 3 m/S 703 mmHg 87%
    18:00 +7°C° 0.5 mm 3 m/S 703 mmHg 89%
    19:00 +5°C° 0.5 mm 3 m/S 703 mmHg 91%
    20:00 +5°C° 0.3 mm 3 m/S 703 mmHg 91%
    21:00 +4°C° 0.3 mm 3 m/S 702 mmHg 91%
    22:00 +4°C° 0.3 mm 4 m/S 702 mmHg 91%
    23:00 +3°C° 0.7 mm 4 m/S 702 mmHg 90%

    übermorgen, 26 Februar, Mittwoch

    Zeit Temperatur Niederschläge Wind Luftdruck Luftfeuchtigkeit
    00:00 +3°C° 0.7 mm 4 m/S 701 mmHg 89%
    01:00 +3°C° 0.7 mm 4 m/S 701 mmHg 88%
    02:00 +1°C° 0.1 mm 4 m/S 700 mmHg 88%
    03:00 +1°C° 0.1 mm 4 m/S 700 mmHg 88%
    04:00 +1°C° 0.1 mm 4 m/S 700 mmHg 88%
    05:00 0°C° 1.3 mm 4 m/S 699 mmHg 88%
    06:00 -1°C° 1.3 mm 5 m/S 699 mmHg 87%
    07:00 -1°C° 1.3 mm 5 m/S 699 mmHg 87%
    08:00 -1°C° 0.5 mm 5 m/S 699 mmHg 86%
    09:00 -2°C° 0.5 mm 5 m/S 700 mmHg 85%
    10:00 -3°C° 0.5 mm 6 m/S 700 mmHg 84%
    11:00 -2°C° 0.5 mm 6 m/S 700 mmHg 80%
    12:00 -2°C° 0.5 mm 6 m/S 701 mmHg 75%
    13:00 -2°C° 0.5 mm 6 m/S 701 mmHg 70%
    14:00 -2°C° 0.4 mm 6 m/S 701 mmHg 76%
    15:00 -2°C° 0.4 mm 6 m/S 701 mmHg 81%
    16:00 -3°C° 0.4 mm 6 m/S 701 mmHg 87%
    17:00 -2°C° 0.8 mm 5 m/S 702 mmHg 88%
    18:00 -2°C° 0.8 mm 4 m/S 703 mmHg 89%
    19:00 -2°C° 0.8 mm 4 m/S 704 mmHg 91%
    20:00 -2°C° 0.6 mm 3 m/S 704 mmHg 90%
    21:00 -2°C° 0.6 mm 3 m/S 705 mmHg 90%
    22:00 -3°C° 0.6 mm 2 m/S 706 mmHg 90%
    23:00 -4°C° 0.6 mm 3 m/S 706 mmHg 91%

    27 Februar, Donnerstag

    Zeit Temperatur Niederschläge Wind Luftdruck Luftfeuchtigkeit
    00:00 -4°C° 0.6 mm 3 m/S 707 mmHg 91%
    01:00 -2°C° 0.6 mm 3 m/S 707 mmHg 92%
    02:00 -3°C° 0.4 mm 4 m/S 708 mmHg 92%
    03:00 -4°C° 0.4 mm 4 m/S 708 mmHg 92%
    04:00 -4°C° 0.4 mm 4 m/S 709 mmHg 91%
    05:00 -4°C° 0.2 mm 3 m/S 709 mmHg 91%
    06:00 -5°C° 0.2 mm 3 m/S 709 mmHg 90%
    07:00 -4°C° 0.2 mm 2 m/S 710 mmHg 89%
    08:00 -3°C° 0 mm 2 m/S 710 mmHg 83%
    09:00 -2°C° 0 mm 2 m/S 710 mmHg 76%
    10:00 +1°C° 0 mm 2 m/S 710 mmHg 69%
    11:00 +2°C° 0 mm 2 m/S 709 mmHg 65%
    12:00 +3°C° 0 mm 2 m/S 709 mmHg 61%
    13:00 +5°C° 0 mm 1 m/S 708 mmHg 57%
    14:00 +4°C° 0.2 mm 2 m/S 707 mmHg 65%
    15:00 +4°C° 0.2 mm 2 m/S 706 mmHg 72%
    16:00 +3°C° 0.2 mm 2 m/S 705 mmHg 80%
    17:00 +3°C° 1.1 mm 2 m/S 705 mmHg 85%
    18:00 +2°C° 1.1 mm 2 m/S 705 mmHg 90%
    19:00 +2°C° 1.1 mm 2 m/S 704 mmHg 95%
    20:00 +1°C° 1 mm 3 m/S 704 mmHg 94%
    21:00 +2°C° 1 mm 3 m/S 704 mmHg 94%
    22:00 +1°C° 1 mm 4 m/S 704 mmHg 93%
    23:00 +3°C° 0.8 mm 4 m/S 704 mmHg 93%

    28 Februar, Freitag

    Zeit Temperatur Niederschläge Wind Luftdruck Luftfeuchtigkeit
    00:00 +3°C° 0.8 mm 4 m/S 704 mmHg 93%
    01:00 +4°C° 0.8 mm 4 m/S 704 mmHg 94%
    02:00 +4°C° 0.5 mm 4 m/S 704 mmHg 93%
    03:00 +4°C° 0.5 mm 4 m/S 704 mmHg 93%
    04:00 +5°C° 0.5 mm 4 m/S 704 mmHg 93%
    05:00 +5°C° 0.3 mm 4 m/S 705 mmHg 93%
    06:00 +4°C° 0.3 mm 4 m/S 705 mmHg 92%
    07:00 +4°C° 0.3 mm 4 m/S 706 mmHg 92%
    08:00 +4°C° 0.3 mm 4 m/S 706 mmHg 92%
    09:00 +4°C° 0.3 mm 4 m/S 706 mmHg 91%
    10:00 +4°C° 0.3 mm 4 m/S 707 mmHg 91%
    11:00 +5°C° 0 mm 4 m/S 707 mmHg 89%
    12:00 +5°C° 0 mm 4 m/S 707 mmHg 88%
    13:00 +7°C° 0 mm 3 m/S 706 mmHg 87%
    14:00 +7°C° 0 mm 3 m/S 706 mmHg 87%
    15:00 +8°C° 0 mm 3 m/S 706 mmHg 86%
    16:00 +8°C° 0 mm 2 m/S 706 mmHg 86%
    17:00 +7°C° 0.2 mm 2 m/S 706 mmHg 87%
    18:00 +7°C° 0.2 mm 2 m/S 705 mmHg 88%
    19:00 +6°C° 0.2 mm 2 m/S 705 mmHg 89%
    20:00 +6°C° 0.1 mm 2 m/S 704 mmHg 88%
    21:00 +6°C° 0.1 mm 2 m/S 704 mmHg 86%
    22:00 +5°C° 0.1 mm 3 m/S 704 mmHg 85%
    23:00 +6°C° 0 mm 2 m/S 703 mmHg 84%

    29 Februar, Samstag

    Zeit Temperatur Niederschläge Wind Luftdruck Luftfeuchtigkeit
    00:00 +6°C° 0 mm 2 m/S 703 mmHg 84%
    01:00 +6°C° 0 mm 2 m/S 702 mmHg 83%
    02:00 +5°C° 0 mm 3 m/S 702 mmHg 83%
    03:00 +5°C° 0 mm 3 m/S 702 mmHg 83%
    04:00 +5°C° 0 mm 4 m/S 701 mmHg 82%
    05:00 +5°C° 0.1 mm 4 m/S 701 mmHg 82%
    06:00 +4°C° 0.1 mm 4 m/S 701 mmHg 81%
    07:00 +4°C° 0.1 mm 3 m/S 700 mmHg 80%
    08:00 +5°C° 0.3 mm 4 m/S 700 mmHg 83%
    09:00 +6°C° 0.3 mm 4 m/S 700 mmHg 85%
    10:00 +6°C° 0.3 mm 5 m/S 700 mmHg 88%
    11:00 +6°C° 1.2 mm 5 m/S 701 mmHg 89%
    12:00 +4°C° 1.2 mm 6 m/S 701 mmHg 90%
    13:00 +3°C° 1.2 mm 6 m/S 702 mmHg 91%
    14:00 +3°C° 0.5 mm 5 m/S 702 mmHg 90%
    15:00 +3°C° 0.5 mm 5 m/S 702 mmHg 89%
    16:00 +4°C° 0.5 mm 4 m/S 702 mmHg 87%
    17:00 +4°C° 0.1 mm 3 m/S 702 mmHg 89%
    18:00 +4°C° 0.1 mm 2 m/S 702 mmHg 90%
    19:00 +4°C° 0.1 mm 2 m/S 702 mmHg 91%
    20:00 +5°C° 0 mm 1 m/S 702 mmHg 90%
    21:00 +4°C° 0 mm 1 m/S 701 mmHg 89%
    22:00 +4°C° 0 mm 1 m/S 700 mmHg 88%
    23:00 +3°C° 0 mm 2 m/S 699 mmHg 86%
    Mehr zeigen